sat.trackr.live / text

‹ back to catalog

STARLINK-32316

NORAD 61860 · 2024-202R

PAYLOAD ACTIVE UNKNOWN

§ Identity

Operator
Country
US
Launch date
2024-11-07
Launch site
AFETR
Launch vehicle
Mass (kg)
RCS (m²)

Purposes: comms

External: N2YO · Heavens-Above · Gunter

§ Orbital elements

Epoch: 2026-05-25T02:02:31.243776Z

Period
94.27 min
Inclination
43.0011°
Eccentricity
0.0001122
Mean motion
15.27575534 rev/d
Perigee alt
482.3 km
Apogee alt
483.8 km
Semi-major
6,861.2 km
B*
1.5996e-4
RAAN
162.8860°
Arg perigee
282.5425°
Mean anomaly
77.5301°
Rev number
8,705

§ Raw data

STARLINK-323161 61860U 24202R   26145.08508384  .00004142  00000+0  15996-3 0  99982 61860  43.0011 162.8860 0001122 282.5425  77.5301 15.27575534 87054

JSON: /api/v1/satellites/61860 · /tle

For live sub-satellite position, see the globe view (requires WebGL).

§ Visibility from observer

Set your observer location to see the next 7 days of passes ≥ 10°. The values pass through the URL so the page stays shareable.

No JS? Fill the form by hand. The geolocation button needs JavaScript.